Weather History for KECP - May, 2013

Change the Weather History Date:

Saturday, May 25, 2013

  Actual Average Record
Temperature  
Mean Temperature 75 °F -  
Max Temperature 89 °F - 97 °F (2012)
Min Temperature 60 °F - 60 °F (2013)
Cooling Degree Days 10    
Growing Degree Days 24 (Base 50)    
Moisture  
Dew Point 50 °F    
Average Humidity 55    
Maximum Humidity 84    
Minimum Humidity 25    
Precipitation  
Precipitation 0.00 in - 0.00 in (2015)
Month to date precipitation  
Year to date precipitation  
Sea Level Pressure  
Sea Level Pressure 30.21 in    
Wind  
Wind Speed 7 mph (NE)    
Max Wind Speed 17 mph    
Max Gust Speed 21 mph    
Visibility 10 miles    
Events      
T = Trace of Precipitation, MM = Missing Value Source: NWS Daily Summary

Daily Weather History Graph

Daily Weather History Graph

Search for Another Location

Airport or City:

Trip Planner

Search our weather history database for the weather conditions in past years. The results will help you decide how hot, cold, wet, or windy it might be!

Date:

Astronomy

May. 25, 2013 Rise Set
Actual Time 6:43 AM EDT 8:36 PM EDT
Civil Twilight 6:17 AM EDT 9:03 PM EDT
Nautical Twilight 5:44 AM EDT 9:36 PM EDT
Astronomical Twilight 5:10 AM EDT 10:10 PM EDT
Moon 9:24 PM EDT (5/25) 7:08 AM EDT (5/25)
Length of Visible Light 14h 46m
Length of Day
13h 52m
Full, 100% of the Moon is Illuminated
May 25
Full
May 31
Last Quarter
Jun 8
New
Jun 16
First Quarter
Jun 23
Full

Hourly Weather History & Observations

Time (EDT) Temp. Dew Point Humidity Pressure Visibility Wind Dir Wind Speed Gust Speed Precip Events Conditions
12:53 AM 66.0 °F 52.0 °F 60% 30.17 in 10.0 mi North 6.9 mph - N/A   Clear
1:53 AM 66.0 °F 51.1 °F 59% 30.17 in 10.0 mi North 6.9 mph - N/A   Clear
2:53 AM 64.9 °F 48.9 °F 56% 30.16 in 10.0 mi NNE 6.9 mph - N/A   Clear
3:53 AM 64.0 °F 46.9 °F 54% 30.17 in 10.0 mi North 6.9 mph - N/A   Clear
4:53 AM 62.1 °F 48.0 °F 60% 30.18 in 10.0 mi NNE 6.9 mph - N/A   Clear
5:53 AM 62.1 °F 46.9 °F 58% 30.19 in 10.0 mi NNE 8.1 mph - N/A   Clear
6:53 AM 61.0 °F 46.9 °F 60% 30.22 in 10.0 mi NNE 9.2 mph - N/A   Clear
7:53 AM 64.9 °F 46.9 °F 52% 30.24 in 10.0 mi NNE 9.2 mph - N/A   Clear
8:53 AM 70.0 °F 48.0 °F 46% 30.25 in 10.0 mi NNE 12.7 mph - N/A   Clear
9:53 AM 75.9 °F 46.9 °F 36% 30.26 in 10.0 mi ENE 10.4 mph - N/A   Clear
10:53 AM 80.1 °F 48.0 °F 32% 30.27 in 10.0 mi ENE 6.9 mph - N/A   Clear
11:53 AM 82.9 °F 46.9 °F 28% 30.26 in 10.0 mi NE 8.1 mph - N/A   Clear
12:53 PM 84.9 °F 45.0 °F 25% 30.26 in 10.0 mi SE 5.8 mph - N/A   Clear
1:53 PM 86.0 °F 46.0 °F 25% 30.24 in 10.0 mi South 6.9 mph - N/A   Clear
2:53 PM 87.1 °F 48.9 °F 27% 30.21 in 10.0 mi Variable 6.9 mph - N/A   Clear
3:53 PM 87.1 °F 48.0 °F 26% 30.19 in 10.0 mi SSW 11.5 mph 16.1 mph N/A   Clear
4:53 PM 87.1 °F 50.0 °F 28% 30.18 in 10.0 mi South 13.8 mph 19.6 mph N/A   Clear
5:53 PM 84.0 °F 50.0 °F 31% 30.19 in 10.0 mi South 13.8 mph 20.7 mph N/A   Clear
6:53 PM 82.9 °F 52.0 °F 34% 30.19 in 10.0 mi South 9.2 mph - N/A   Clear
7:53 PM 79.0 °F 54.0 °F 42% 30.19 in 10.0 mi South 5.8 mph - N/A   Clear
8:53 PM 75.9 °F 57.0 °F 52% 30.19 in 10.0 mi Calm Calm - N/A   Partly Cloudy
9:53 PM 70.0 °F 59.0 °F 68% 30.20 in 10.0 mi Calm Calm - N/A   Clear
10:53 PM 66.9 °F 59.0 °F 76% 30.22 in 10.0 mi Calm Calm - N/A   Clear
11:53 PM 63.0 °F 57.9 °F 84% 30.22 in 10.0 mi Calm Calm - N/A   Clear